| time (UTC) | temp F | wind direction | speed knots | gust knots | rain 1hr in | rain 24hr in | rain mn in | humidity % | barometer mb |
| 20260502211037 | 49 | 258 | 5.2 | 5.2 | 0.00 | 0.00 | 0.00 | 50 | 1006.7 |
| 20260502210533 | 48 | 266 | 5.2 | 5.2 | 0.00 | 0.00 | 0.00 | 49 | 1006.7 |
| 20260502210031 | 48 | 120 | 4.3 | 5.2 | 0.00 | 0.00 | 0.00 | 53 | 1006.7 |
| 20260502205527 | 48 | 246 | 2.6 | 2.6 | 0.00 | 0.00 | 0.00 | 54 | 1006.7 |
| 20260502205024 | 48 | 252 | 5.2 | 6.1 | 0.00 | 0.00 | 0.00 | 54 | 1006.7 |
| 20260502204521 | 48 | 106 | 6.1 | 6.1 | 0.00 | 0.00 | 0.00 | 57 | 1006.7 |
| 20260502204019 | 48 | 299 | 3.5 | 3.5 | 0.00 | 0.00 | 0.00 | 55 | 1006.7 |
| 20260502203515 | 49 | 270 | 3.5 | 4.3 | 0.00 | 0.00 | 0.00 | 45 | 1006.7 |
| 20260502203012 | 49 | 246 | 8.7 | 8.7 | 0.00 | 0.00 | 0.00 | 42 | 1006.7 |
| 20260502202508 | 50 | 258 | 7.8 | 8.7 | 0.00 | 0.00 | 0.00 | 43 | 1006.7 |
| 20260502202007 | 49 | 258 | 5.2 | 5.2 | 0.00 | 0.00 | 0.00 | 44 | 1006.7 |
| 20260502201503 | 50 | 270 | 4.3 | 5.2 | 0.00 | 0.00 | 0.00 | 47 | 1006.7 |
| 20260502200959 | 49 | 247 | 3.5 | 3.5 | 0.00 | 0.00 | 0.00 | 46 | 1007.0 |
| 20260502200455 | 49 | 258 | 5.2 | 6.1 | 0.00 | 0.00 | 0.00 | 48 | 1007.0 |
| 20260502195953 | 49 | 258 | 5.2 | 6.1 | 0.00 | 0.00 | 0.00 | 48 | 1007.0 |
| 20260502195450 | 49 | 266 | 1.7 | 1.7 | 0.00 | 0.00 | 0.00 | 49 | 1006.7 |
| 20260502194946 | 49 | 222 | 0.0 | 0.0 | 0.00 | 0.00 | 0.00 | 50 | 1007.0 |
| 20260502194443 | 48 | 312 | 3.5 | 3.5 | 0.00 | 0.00 | 0.00 | 49 | 1007.0 |
| 20260502193939 | 48 | 254 | 7.8 | 8.7 | 0.00 | 0.00 | 0.00 | 48 | 1007.0 |
| 20260502193437 | 49 | 266 | 5.2 | 5.2 | 0.00 | 0.00 | 0.00 | 48 | 1007.0 |
| 20260502192932 | 49 | 259 | 4.3 | 5.2 | 0.00 | 0.00 | 0.00 | 46 | 1007.0 |
| 20260502192429 | 49 | 258 | 6.1 | 7.0 | 0.00 | 0.00 | 0.00 | 45 | 1007.0 |
| 20260502191926 | 48 | 264 | 7.0 | 7.0 | 0.00 | 0.00 | 0.00 | 45 | 1007.0 |
| 20260502191424 | 48 | 255 | 6.1 | 6.1 | 0.00 | 0.00 | 0.00 | 45 | 1007.0 |
| 20260502190921 | 49 | 270 | 2.6 | 2.6 | 0.00 | 0.00 | 0.00 | 47 | 1007.3 |
| 20260502190418 | 48 | 264 | 4.3 | 5.2 | 0.00 | 0.00 | 0.00 | 49 | 1007.3 |
| 20260502185914 | 48 | 264 | 2.6 | 3.5 | 0.00 | 0.00 | 0.00 | 48 | 1007.0 |
| 20260502185410 | 48 | 264 | 5.2 | 5.2 | 0.00 | 0.00 | 0.00 | 49 | 1007.3 |
| 20260502184907 | 48 | 258 | 5.2 | 5.2 | 0.00 | 0.00 | 0.00 | 50 | 1007.3 |
| 20260502184403 | 48 | 258 | 5.2 | 5.2 | 0.00 | 0.00 | 0.00 | 50 | 1007.3 |
| 20260502183859 | 48 | 255 | 7.0 | 8.7 | 0.00 | 0.00 | 0.00 | 50 | 1007.3 |
| 20260502183355 | 48 | 246 | 2.6 | 2.6 | 0.00 | 0.00 | 0.00 | 47 | 1007.3 |
| 20260502182851 | 48 | 270 | 4.3 | 4.3 | 0.00 | 0.00 | 0.00 | 47 | 1007.3 |
| 20260502182347 | 48 | 258 | 6.1 | 6.1 | 0.00 | 0.00 | 0.00 | 47 | 1007.3 |
| 20260502181843 | 48 | 126 | 1.7 | 1.7 | 0.00 | 0.00 | 0.00 | 48 | 1007.3 |
| 20260502181342 | 49 | 252 | 9.6 | 10.4 | 0.00 | 0.00 | 0.00 | 47 | 1007.3 |
| 20260502180839 | 49 | 258 | 6.1 | 6.1 | 0.00 | 0.00 | 0.00 | 44 | 1007.3 |
| 20260502180336 | 48 | 280 | 7.0 | 7.8 | 0.00 | 0.00 | 0.00 | 46 | 1007.3 |
| 20260502170254 | 47 | 246 | 8.7 | 9.6 | 0.00 | 0.00 | 0.00 | 47 | 1007.7 |
| 20260502164237 | 47 | 264 | 8.7 | 9.6 | 0.00 | 0.00 | 0.00 | 52 | 1007.7 |
| 20260502163732 | 47 | 255 | 7.8 | 8.7 | 0.00 | 0.00 | 0.00 | 51 | 1007.7 |
| 20260502163229 | 47 | 270 | 2.6 | 3.5 | 0.00 | 0.00 | 0.00 | 50 | 1007.7 |
| 20260502162726 | 47 | 276 | 4.3 | 5.2 | 0.00 | 0.00 | 0.00 | 50 | 1007.7 |
| 20260502162222 | 47 | 254 | 5.2 | 6.1 | 0.00 | 0.00 | 0.00 | 54 | 1008.0 |
| 20260502161719 | 47 | 281 | 2.6 | 2.6 | 0.00 | 0.00 | 0.00 | 52 | 1008.0 |
| 20260502161215 | 47 | 258 | 7.8 | 8.7 | 0.00 | 0.00 | 0.00 | 50 | 1008.0 |
| 20260502160714 | 46 | 264 | 6.1 | 6.1 | 0.00 | 0.00 | 0.00 | 52 | 1007.7 |
| 20260502160213 | 47 | 267 | 5.2 | 6.1 | 0.00 | 0.00 | 0.00 | 54 | 1007.7 |
| 20260502152127 | 46 | 265 | 5.2 | 5.2 | 0.00 | 0.00 | 0.00 | 56 | 1007.7 |
| 20260502151624 | 46 | 264 | 0.0 | 0.0 | 0.00 | 0.00 | 0.00 | 59 | 1007.7 |
| 20260502151121 | 45 | 254 | 3.5 | 3.5 | 0.00 | 0.00 | 0.00 | 58 | 1007.7 |
| 20260502150619 | 46 | 265 | 3.5 | 4.3 | 0.00 | 0.00 | 0.00 | 56 | 1008.0 |
| 20260502150115 | 46 | 264 | 6.1 | 6.1 | 0.00 | 0.00 | 0.00 | 58 | 1008.0 |
| 20260502130503 | 40 | 264 | 6.1 | 6.1 | 0.00 | 0.00 | 0.00 | 76 | 1007.7 |
| 20260502123446 | 39 | 265 | 6.1 | 6.1 | 0.00 | 0.00 | 0.00 | 80 | 1007.3 |
| 20260502122943 | 39 | 264 | 6.1 | 6.1 | 0.00 | 0.00 | 0.00 | 81 | 1007.3 |
| 20260502122439 | 38 | 265 | 4.3 | 5.2 | 0.00 | 0.00 | 0.00 | 81 | 1007.3 |
| 20260502121938 | 38 | 265 | 1.7 | 1.7 | 0.00 | 0.00 | 0.00 | 84 | 1007.3 |
| 20260502121434 | 38 | 272 | 2.6 | 2.6 | 0.00 | 0.00 | 0.00 | 84 | 1007.3 |
| 20260502120931 | 37 | 272 | 2.6 | 2.6 | 0.00 | 0.00 | 0.00 | 85 | 1007.3 |
| 20260502120428 | 37 | 270 | 4.3 | 5.2 | 0.00 | 0.00 | 0.00 | 93 | 1007.3 |
| 20260502115925 | 36 | 270 | 2.6 | 2.6 | 0.00 | 0.00 | 0.00 | 97 | 1007.3 |
| 20260502115422 | 36 | 265 | 0.0 | 0.0 | 0.00 | 0.00 | 0.00 | 98 | 1007.3 |
| 20260502114918 | 37 | 265 | 0.0 | 0.0 | 0.00 | 0.00 | 0.00 | 97 | 1007.0 |
| 20260502114415 | 39 | 265 | 0.0 | 0.0 | 0.00 | 0.00 | 0.00 | 98 | 1007.0 |
| 20260502113913 | 38 | 265 | 0.0 | 0.0 | 0.00 | 0.00 | 0.00 | 98 | 1007.0 |
| 20260502113410 | 40 | 265 | 0.0 | 0.0 | 0.00 | 0.00 | 0.00 | 98 | 1007.0 |
| 20260502112909 | 39 | 265 | 0.0 | 0.0 | 0.00 | 0.00 | 0.00 | 98 | 1007.0 |
| 20260502112405 | 36 | 265 | 0.0 | 0.0 | 0.00 | 0.00 | 0.00 | 98 | 1007.0 |
| 20260502111903 | 35 | 265 | 0.0 | 0.0 | 0.00 | 0.00 | 0.00 | 98 | 1007.0 |
| 20260502111400 | 34 | 265 | 0.0 | 0.0 | 0.00 | 0.00 | 0.00 | 98 | 1007.3 |
| 20260502110857 | 33 | 265 | 0.0 | 0.0 | 0.00 | 0.00 | 0.00 | 98 | 1007.0 |
| 20260502110355 | 33 | 265 | 0.0 | 0.0 | 0.00 | 0.00 | 0.00 | 98 | 1007.0 |
| 20260502105852 | 33 | 265 | 0.0 | 0.0 | 0.00 | 0.00 | 0.00 | 98 | 1007.0 |
| 20260502105349 | 33 | 265 | 0.0 | 0.0 | 0.00 | 0.00 | 0.00 | 98 | 1007.0 |
| 20260502104847 | 33 | 265 | 0.0 | 0.0 | 0.00 | 0.00 | 0.00 | 98 | 1007.0 |
| 20260502104344 | 33 | 265 | 0.0 | 0.0 | 0.00 | 0.00 | 0.00 | 98 | 1007.0 |
| 20260502103841 | 33 | 265 | 0.0 | 0.0 | 0.00 | 0.00 | 0.00 | 98 | 1007.0 |
| 20260502103339 | 33 | 265 | 0.0 | 0.0 | 0.00 | 0.00 | 0.00 | 98 | 1007.0 |
| 20260502102836 | 33 | 265 | 0.0 | 0.0 | 0.00 | 0.00 | 0.00 | 98 | 1007.0 |
| 20260502102332 | 33 | 265 | 0.0 | 0.0 | 0.00 | 0.00 | 0.00 | 98 | 1007.0 |
| 20260502101830 | 33 | 265 | 0.0 | 0.0 | 0.00 | 0.00 | 0.00 | 98 | 1007.0 |
| 20260502101328 | 33 | 265 | 0.0 | 0.0 | 0.00 | 0.00 | 0.00 | 98 | 1007.0 |
| 20260502100826 | 33 | 265 | 0.0 | 0.0 | 0.00 | 0.00 | 0.00 | 98 | 1007.0 |
| 20260502100325 | 33 | 265 | 0.0 | 0.0 | 0.00 | 0.00 | 0.00 | 98 | 1006.7 |
| 20260502091259 | 34 | 265 | 0.0 | 0.0 | 0.00 | 0.00 | 0.00 | 98 | 1007.0 |
| 20260502090756 | 34 | 265 | 0.0 | 0.0 | 0.00 | 0.00 | 0.00 | 98 | 1007.0 |
| 20260502090253 | 34 | 265 | 0.0 | 0.0 | 0.00 | 0.00 | 0.00 | 98 | 1007.0 |
| 20260502071148 | 36 | 265 | 0.0 | 0.0 | 0.00 | 0.00 | 0.00 | 97 | 1006.7 |
| 20260502070646 | 36 | 265 | 0.0 | 0.0 | 0.00 | 0.00 | 0.00 | 97 | 1006.7 |
| 20260502070144 | 35 | 265 | 0.0 | 0.0 | 0.00 | 0.00 | 0.00 | 97 | 1007.0 |
| 20260502065642 | 35 | 265 | 0.0 | 0.0 | 0.00 | 0.00 | 0.00 | 97 | 1006.7 |
| 20260502065138 | 36 | 265 | 0.0 | 0.0 | 0.00 | 0.00 | 0.00 | 97 | 1006.7 |
| 20260502064638 | 35 | 265 | 0.0 | 0.0 | 0.00 | 0.00 | 0.00 | 97 | 1007.0 |
| 20260502064134 | 35 | 265 | 0.0 | 0.0 | 0.00 | 0.00 | 0.00 | 97 | 1007.0 |
| 20260502063632 | 36 | 265 | 0.0 | 0.0 | 0.00 | 0.00 | 0.00 | 97 | 1007.0 |
| 20260502063130 | 36 | 265 | 0.0 | 0.0 | 0.00 | 0.00 | 0.00 | 97 | 1007.0 |
| 20260502062626 | 36 | 265 | 0.0 | 0.0 | 0.00 | 0.00 | 0.00 | 97 | 1007.0 |
| 20260502062124 | 36 | 265 | 0.0 | 0.0 | 0.00 | 0.00 | 0.00 | 97 | 1007.0 |
| 20260502061622 | 36 | 265 | 0.0 | 0.0 | 0.00 | 0.00 | 0.00 | 97 | 1007.0 |
| 20260502061120 | 37 | 265 | 0.0 | 0.0 | 0.00 | 0.00 | 0.00 | 97 | 1007.0 |
| 20260502060619 | 36 | 265 | 0.0 | 0.0 | 0.00 | 0.00 | 0.00 | 97 | 1007.0 |
| 20260502060116 | 37 | 265 | 0.0 | 0.0 | 0.00 | 0.00 | 0.00 | 97 | 1007.0 |
| 20260502055614 | 37 | 265 | 0.0 | 0.0 | 0.00 | 0.00 | 0.00 | 97 | 1007.0 |
| 20260502055112 | 37 | 265 | 0.0 | 0.0 | 0.00 | 0.00 | 0.00 | 97 | 1007.0 |
| 20260502054611 | 37 | 265 | 0.0 | 0.0 | 0.00 | 0.00 | 0.00 | 97 | 1007.0 |
| 20260502054108 | 37 | 265 | 0.0 | 0.0 | 0.00 | 0.00 | 0.00 | 97 | 1007.0 |
| 20260502053604 | 37 | 265 | 0.0 | 0.0 | 0.00 | 0.00 | 0.00 | 97 | 1007.0 |
| 20260502053102 | 37 | 265 | 0.0 | 0.0 | 0.00 | 0.00 | 0.00 | 97 | 1007.0 |
| 20260502052600 | 37 | 265 | 0.0 | 0.0 | 0.00 | 0.00 | 0.00 | 97 | 1007.3 |
| 20260502052058 | 37 | 265 | 0.0 | 0.0 | 0.00 | 0.00 | 0.00 | 97 | 1007.0 |
| 20260502051556 | 38 | 265 | 0.0 | 0.0 | 0.00 | 0.00 | 0.00 | 97 | 1007.0 |
| 20260502051054 | 38 | 265 | 0.0 | 0.0 | 0.00 | 0.00 | 0.00 | 97 | 1007.3 |
| 20260502050549 | 38 | 265 | 0.0 | 0.0 | 0.00 | 0.00 | 0.00 | 97 | 1007.0 |
| 20260502050046 | 37 | 265 | 0.0 | 0.0 | 0.00 | 0.00 | 0.00 | 97 | 1007.3 |
| 20260502045543 | 38 | 265 | 0.0 | 0.0 | 0.00 | 0.00 | 0.00 | 97 | 1007.0 |
| 20260502045040 | 38 | 265 | 0.0 | 0.0 | 0.00 | 0.00 | 0.00 | 97 | 1007.0 |
| 20260502044537 | 38 | 265 | 0.0 | 0.0 | 0.00 | 0.00 | 0.00 | 97 | 1007.0 |
| 20260502044033 | 38 | 265 | 0.0 | 0.0 | 0.00 | 0.00 | 0.00 | 97 | 1007.0 |
| 20260502043531 | 39 | 265 | 0.0 | 0.0 | 0.00 | 0.00 | 0.00 | 97 | 1007.0 |
| 20260502043027 | 38 | 264 | 1.7 | 1.7 | 0.00 | 0.00 | 0.00 | 97 | 1007.0 |
| 20260502042522 | 39 | 264 | 0.0 | 0.0 | 0.00 | 0.00 | 0.00 | 96 | 1007.0 |
| 20260502042020 | 39 | 264 | 0.0 | 0.0 | 0.00 | 0.00 | 0.00 | 96 | 1007.0 |
| 20260502041518 | 38 | 112 | 0.0 | 0.0 | 0.00 | 0.00 | 0.00 | 96 | 1007.0 |
| 20260502041015 | 39 | 112 | 0.0 | 0.0 | 0.00 | 0.00 | 0.00 | 96 | 1007.3 |
| 20260502040511 | 39 | 112 | 0.0 | 0.0 | 0.00 | 0.00 | 0.00 | 96 | 1007.3 |
| 20260502040009 | 39 | 112 | 0.0 | 0.0 | 0.00 | 0.00 | 0.00 | 96 | 1007.0 |
| 20260502035504 | 39 | 112 | 0.0 | 0.0 | 0.00 | 0.09 | 0.09 | 96 | 1007.3 |
| 20260502035002 | 39 | 112 | 0.0 | 0.0 | 0.00 | 0.09 | 0.09 | 96 | 1007.3 |
| 20260502034459 | 39 | 112 | 0.0 | 0.0 | 0.00 | 0.09 | 0.09 | 96 | 1007.3 |
| 20260502033958 | 39 | 112 | 0.0 | 0.0 | 0.00 | 0.09 | 0.09 | 96 | 1007.3 |
| 20260502033455 | 40 | 112 | 0.0 | 0.0 | 0.00 | 0.09 | 0.09 | 95 | 1007.3 |
| 20260502032952 | 40 | 112 | 0.0 | 0.0 | 0.00 | 0.09 | 0.09 | 95 | 1007.3 |
| 20260502032448 | 39 | 112 | 0.0 | 0.0 | 0.00 | 0.09 | 0.09 | 95 | 1007.3 |
| 20260502031945 | 39 | 112 | 0.0 | 0.0 | 0.00 | 0.09 | 0.09 | 95 | 1007.3 |
| 20260502031444 | 39 | 112 | 0.0 | 0.0 | 0.00 | 0.09 | 0.09 | 95 | 1007.3 |
| 20260502030941 | 40 | 112 | 0.0 | 0.0 | 0.00 | 0.09 | 0.09 | 94 | 1007.3 |
| 20260502030439 | 40 | 112 | 0.0 | 0.0 | 0.00 | 0.09 | 0.09 | 94 | 1007.0 |
| 20260502025931 | 40 | 112 | 0.0 | 0.0 | 0.01 | 0.09 | 0.09 | 94 | 1007.3 |
| 20260502025428 | 40 | 112 | 0.0 | 0.0 | 0.01 | 0.09 | 0.09 | 94 | 1007.0 |
| 20260502024926 | 40 | 112 | 0.0 | 0.0 | 0.01 | 0.09 | 0.09 | 93 | 1007.0 |
| 20260502024424 | 41 | 112 | 0.0 | 0.0 | 0.01 | 0.09 | 0.09 | 93 | 1007.0 |
| 20260502023922 | 41 | 112 | 0.0 | 0.0 | 0.01 | 0.09 | 0.09 | 92 | 1007.0 |
| 20260502023419 | 42 | 112 | 0.0 | 0.0 | 0.01 | 0.09 | 0.09 | 92 | 1007.0 |
| 20260502022916 | 42 | 112 | 0.0 | 0.0 | 0.01 | 0.09 | 0.09 | 91 | 1007.0 |
| 20260502022413 | 42 | 112 | 0.0 | 0.0 | 0.01 | 0.09 | 0.09 | 90 | 1007.0 |
| 20260502021910 | 43 | 112 | 0.9 | 0.9 | 0.01 | 0.09 | 0.09 | 90 | 1006.7 |
| 20260502021407 | 43 | 112 | 2.6 | 3.5 | 0.01 | 0.09 | 0.09 | 88 | 1006.7 |
| 20260502020904 | 43 | 96 | 1.7 | 1.7 | 0.01 | 0.09 | 0.09 | 88 | 1007.0 |
| 20260502020402 | 43 | 96 | 7.0 | 7.0 | 0.01 | 0.09 | 0.09 | 88 | 1007.3 |
| 20260502015858 | 44 | 254 | 5.2 | 6.1 | 0.03 | 0.07 | 0.07 | 86 | 1007.3 |
| 20260502015356 | 46 | 267 | 5.2 | 5.2 | 0.00 | 0.04 | 0.04 | 80 | 1007.0 |
| 20260502014853 | 47 | 258 | 1.7 | 1.7 | 0.00 | 0.04 | 0.04 | 77 | 1006.7 |
| 20260502014350 | 46 | 144 | 1.7 | 1.7 | 0.00 | 0.04 | 0.04 | 77 | 1006.3 |
| 20260502013845 | 46 | 126 | 1.7 | 1.7 | 0.00 | 0.04 | 0.04 | 79 | 1006.3 |
| 20260502013341 | 46 | 132 | 2.6 | 2.6 | 0.00 | 0.04 | 0.04 | 83 | 1006.3 |
| 20260502012838 | 46 | 267 | 0.0 | 0.0 | 0.00 | 0.04 | 0.04 | 86 | 1006.3 |
| 20260502012337 | 46 | 267 | 0.0 | 0.0 | 0.00 | 0.04 | 0.04 | 84 | 1005.9 |
| 20260502011833 | 46 | 267 | 0.0 | 0.0 | 0.00 | 0.04 | 0.04 | 82 | 1005.9 |
| 20260502011329 | 46 | 267 | 0.0 | 0.0 | 0.00 | 0.04 | 0.04 | 78 | 1005.9 |
| 20260502010827 | 46 | 267 | 0.0 | 0.0 | 0.00 | 0.04 | 0.04 | 78 | 1005.5 |
| 20260502010323 | 46 | 267 | 0.0 | 0.0 | 0.00 | 0.04 | 0.04 | 78 | 1005.2 |
| 20260502005820 | 47 | 267 | 0.0 | 0.0 | 0.00 | 0.04 | 0.04 | 77 | 1005.2 |
| 20260502005318 | 47 | 267 | 0.0 | 0.0 | 0.00 | 0.04 | 0.04 | 77 | 1005.2 |
| 20260502004815 | 47 | 267 | 0.0 | 0.0 | 0.00 | 0.04 | 0.04 | 76 | 1005.2 |
| 20260502004311 | 47 | 267 | 0.0 | 0.0 | 0.00 | 0.04 | 0.04 | 76 | 1005.5 |
| 20260502003809 | 47 | 267 | 0.0 | 0.0 | 0.00 | 0.04 | 0.04 | 74 | 1005.2 |
| 20260502003306 | 47 | 267 | 0.0 | 0.0 | 0.00 | 0.04 | 0.04 | 73 | 1005.5 |
| 20260502002801 | 47 | 267 | 0.0 | 0.0 | 0.00 | 0.04 | 0.04 | 73 | 1005.2 |
| 20260502002259 | 47 | 267 | 0.0 | 0.0 | 0.00 | 0.04 | 0.04 | 73 | 1005.5 |
| 20260502001756 | 47 | 267 | 0.0 | 0.0 | 0.00 | 0.04 | 0.04 | 72 | 1005.2 |
| 20260502001254 | 48 | 267 | 0.0 | 0.0 | 0.00 | 0.04 | 0.04 | 71 | 1005.5 |
| 20260502000752 | 48 | 267 | 0.0 | 0.0 | 0.00 | 0.04 | 0.04 | 70 | 1005.5 |
| 20260502000249 | 48 | 270 | 1.7 | 1.7 | 0.00 | 0.04 | 0.04 | 70 | 1005.2 |
| 20260501235744 | 48 | 270 | 2.6 | 3.5 | 0.00 | 0.04 | 0.04 | 70 | 1005.2 |
| 20260501235241 | 48 | 265 | 0.9 | 0.9 | 0.00 | 0.04 | 0.04 | 70 | 1004.9 |
| 20260501234737 | 49 | 180 | 1.7 | 1.7 | 0.00 | 0.04 | 0.04 | 69 | 1005.2 |
| 20260501234234 | 49 | 240 | 2.6 | 2.6 | 0.00 | 0.04 | 0.04 | 68 | 1004.9 |
| 20260501233732 | 49 | 270 | 0.0 | 0.0 | 0.00 | 0.04 | 0.04 | 71 | 1004.9 |
| 20260501233229 | 49 | 258 | 1.7 | 1.7 | 0.00 | 0.04 | 0.04 | 70 | 1004.9 |
| 20260501232724 | 49 | 258 | 2.6 | 2.6 | 0.00 | 0.04 | 0.04 | 71 | 1004.9 |
| 20260501232222 | 49 | 258 | 3.5 | 4.3 | 0.00 | 0.04 | 0.04 | 70 | 1004.9 |
| 20260501231719 | 49 | 264 | 2.6 | 2.6 | 0.00 | 0.04 | 0.04 | 71 | 1004.9 |
| 20260501231217 | 49 | 264 | 4.3 | 5.2 | 0.00 | 0.04 | 0.04 | 70 | 1004.9 |
| 20260501230716 | 49 | 265 | 4.3 | 4.3 | 0.00 | 0.04 | 0.04 | 70 | 1004.9 |
| 20260501230214 | 50 | 264 | 2.6 | 3.5 | 0.00 | 0.04 | 0.04 | 69 | 1004.5 |
| 20260501225711 | 51 | 258 | 3.5 | 3.5 | 0.00 | 0.04 | 0.04 | 66 | 1004.9 |
| 20260501225208 | 51 | 255 | 3.5 | 3.5 | 0.00 | 0.04 | 0.04 | 69 | 1004.9 |
| 20260501224703 | 50 | 270 | 2.6 | 3.5 | 0.00 | 0.04 | 0.04 | 70 | 1004.9 |
| 20260501224201 | 49 | 78 | 2.6 | 2.6 | 0.00 | 0.04 | 0.04 | 71 | 1004.9 |
| 20260501223658 | 49 | 258 | 2.6 | 2.6 | 0.00 | 0.04 | 0.04 | 74 | 1004.9 |
| 20260501223154 | 49 | 252 | 2.6 | 3.5 | 0.00 | 0.04 | 0.04 | 73 | 1004.9 |
| 20260501222650 | 49 | 258 | 2.6 | 3.5 | 0.00 | 0.04 | 0.04 | 73 | 1004.9 |
| 20260501222148 | 50 | 120 | 1.7 | 1.7 | 0.00 | 0.04 | 0.04 | 72 | 1004.9 |
| 20260501221644 | 49 | 252 | 5.2 | 5.2 | 0.00 | 0.04 | 0.04 | 72 | 1004.9 |
| 20260501221137 | 50 | 246 | 3.5 | 4.3 | 0.00 | 0.04 | 0.04 | 70 | 1004.9 |
| 20260501220634 | 49 | 266 | 6.1 | 6.1 | 0.00 | 0.04 | 0.04 | 70 | 1004.9 |
| 20260501220131 | 48 | 265 | 4.3 | 5.2 | 0.00 | 0.04 | 0.04 | 72 | 1004.9 |
| 20260501215627 | 48 | 258 | 5.2 | 6.1 | 0.00 | 0.04 | 0.04 | 73 | 1004.9 |
| 20260501215128 | 48 | 246 | 8.7 | 9.6 | 0.00 | 0.04 | 0.04 | 73 | 1005.2 |
| 20260501214623 | 48 | 267 | 6.1 | 6.1 | 0.00 | 0.04 | 0.04 | 74 | 1005.2 |
| 20260501214119 | 48 | 252 | 7.8 | 8.7 | 0.00 | 0.04 | 0.04 | 74 | 1004.9 |
| 20260501213616 | 48 | 258 | 7.8 | 9.6 | 0.00 | 0.04 | 0.04 | 74 | 1004.9 |
| 20260501213112 | 48 | 258 | 6.1 | 6.1 | 0.00 | 0.04 | 0.04 | 74 | 1004.5 |
| 20260501212609 | 48 | 266 | 8.7 | 9.6 | 0.00 | 0.04 | 0.04 | 74 | 1004.9 |
| 20260501212105 | 48 | 246 | 7.0 | 7.8 | 0.00 | 0.04 | 0.04 | 73 | 1004.5 |
| 20260501211602 | 48 | 248 | 7.0 | 7.8 | 0.00 | 0.04 | 0.04 | 73 | 1004.5 |